#timestamp,LO_Frequency,Hit,StdDev 
1676530815.5,286047002.7,P
1676530835.3,286047002.7,N
1676530855.2,286047002.8,N
1676530875.0,286047000.2,N
1676530875.9,286047000.2,N
1676530895.7,286047002.4,N
1676530915.6,286047002.7,N
1676530935.4,286047000.2,N
1676530955.3,286047002.7,N
1676530975.1,286046999.8,N
1676530976.0,286046999.8,N
1676530995.8,286047002.8,N
1676531015.7,286047002.7,N
1676531035.5,286047002.0,N
1676531055.3,286047002.2,N
1676531075.2,286047002.8,N
1676531095.0,286047002.4,N
1676531095.9,286047002.4,N
1676531115.8,286047002.4,N
1676531135.6,286047001.9,N
1676531155.4,286047001.9,N
1676531175.3,286047002.0,N
1676531195.1,286047001.6,N
1676531215.8,286047001.6,N
1676531235.7,286047001.5,N
1676531255.5,286047002.2,N
1676531275.4,286047001.7,N
1676531295.2,286047001.8,N
1676531315.0,286047001.8,N
1676531315.9,286047001.8,N
1676531335.8,286047001.7,N
1676531355.6,286047001.9,N
1676531375.4,286047001.6,N
1676531395.3,286047002.6,N
1676531415.1,286047001.7,N
1676531435.9,286047001.4,N
1676531455.7,286047001.5,N
1676531475.5,286047002.2,N
1676531495.4,286047001.4,N
1676531515.2,286047001.7,N
1676531535.0,286047001.5,N
1676531535.9,286047001.5,Y
1676531555.8,286047000.9,P
1676531575.6,286047000.9,N
1676531595.5,286047000.5,N
1676531615.3,286047000.5,N
1676531635.1,286047000.5,N
1676531655.9,286047000.2,N
1676531675.7,286047000.6,N
1676531695.5,286047001.0,N
1676531715.4,286047000.8,N
1676531735.2,286047000.3,N
1676531755.1,286047001.0,N
1676531756.0,286047001.0,N
1676531775.8,286047000.9,N
1676531795.6,286047000.5,N
1676531815.5,286047000.0,N
1676531835.3,286047000.2,N
1676531855.1,286046999.9,N
1676531875.9,286046999.9,N
1676531895.7,286046999.9,N
1676531915.6,286047000.0,N
1676531935.4,286047002.7,Y
1676531955.2,286047000.3,P
1676531975.1,286047000.0,N
1676531976.0,286047000.0,N
1676531995.8,286047000.0,N
1676532015.7,286047000.0,N
1676532035.5,286047000.5,N
1676532055.3,286047000.2,N
1676532075.2,286047000.5,N
1676532095.9,286047000.2,N
1676532115.7,286046999.9,N
1676532135.6,286047000.2,N
1676532155.4,286046999.8,N
1676532175.3,286046999.7,N
1676532195.1,286047002.8,Y
1676532196.0,286047002.8,P
1676532215.8,286047002.7,N
1676532235.7,286047000.0,N
1676532255.5,286047000.3,N
1676532275.3,286047000.3,N
1676532295.2,286047000.1,N
1676532315.0,286047000.1,N
1676532315.9,286047000.1,N
1676532335.8,286047000.1,N
1676532355.6,286047000.1,N
1676532375.4,286046999.8,N
1676532395.3,286046999.8,N
1676532415.1,286047000.2,N
1676532435.8,286047000.2,N
1676532455.7,286046999.9,N
1676532475.5,286047000.2,N
1676532495.4,286047002.8,Y
1676532515.2,286046999.7,P
1676532535.0,286047000.2,N
1676532535.9,286047000.2,N
1676532555.8,286047000.1,N
1676532575.6,286047002.4,Y
1676532595.4,286047002.4,P
1676532615.3,286047002.3,N
1676532635.1,286046999.7,N
1676532655.9,286047000.0,N
1676532675.7,286047002.8,N
1676532695.5,286047000.4,N
1676532715.4,286046999.8,N
1676532735.2,286047000.3,N
1676532755.0,286047002.8,N
1676532755.9,286047002.8,N
1676532775.8,286047002.7,N
1676532795.6,286047002.3,N
1676532815.5,286046999.7,N
1676532835.3,286047002.8,N
1676532855.1,286047002.5,N
1676532875.9,286047002.2,N
1676532895.7,286047002.1,N
1676532915.5,286047002.7,N
1676532935.4,286047002.1,N
1676532955.2,286047002.7,N
1676532975.0,286047002.3,N
1676532975.9,286047002.3,N
1676532995.8,286047002.4,N
1676533015.6,286047002.6,N
1676533035.5,286047002.4,N
1676533055.3,286047002.6,N
1676533075.1,286047001.5,N
1676533095.9,286047001.6,N
1676533115.7,286047002.5,N
1676533135.5,286047001.9,N
1676533155.4,286047001.8,N
1676533175.2,286047001.9,N
1676533195.1,286047001.5,N
1676533196.0,286047001.5,N
1676533215.8,286047002.0,N
1676533235.6,286047002.0,N
1676533255.5,286047001.3,N
1676533275.3,286047001.4,N
1676533295.1,286047002.0,Y
1676533315.9,286047001.0,P
1676533335.7,286047000.4,N
1676533355.6,286047000.3,N
1676533375.4,286047000.4,N
1676533395.2,286047000.7,N
1676533415.1,286047000.3,N
1676533416.0,286047000.3,N
1676533435.8,286047000.7,N
1676533455.6,286047000.2,N
1676533475.5,286047000.4,N
1676533495.3,286047000.1,N
1676533515.2,286047000.4,N
1676533535.9,286047002.8,Y
1676533555.7,286047000.5,P
1676533575.6,286047000.3,P
1676533595.4,286046999.9,N
1676533615.3,286047000.9,Y
1676533635.1,286047000.9,P
1676533636.0,286047000.9,N
1676533655.8,286047001.0,P
1676533675.7,286046998.5,Y
1676533695.5,286046998.3,P
1676533715.4,286046998.3,N
1676533735.2,286046998.5,N
1676533755.0,286046998.1,N
1676533755.9,286046998.1,N
1676533775.8,286046998.1,N
1676533795.6,286047000.8,N
1676533815.4,286047001.1,N
1676533835.3,286046998.5,N
1676533855.1,286046998.8,N
1676533875.9,286046998.4,N
1676533895.7,286047001.2,N
1676533915.5,286047001.2,N
1676533935.4,286046998.4,N
1676533955.2,286046998.4,N
1676533975.0,286046998.1,N
1676533975.9,286046998.1,N
1676533995.8,286046998.7,N
1676534015.6,286046998.2,N
1676534035.5,286046998.6,N
1676534055.3,286046998.7,N
1676534075.1,286046998.2,N
1676534095.9,286046999.0,N
1676534115.7,286046998.3,N
1676534135.5,286046998.6,N
1676534155.4,286046998.5,N
1676534175.2,286046998.2,N
1676534195.1,286047001.2,N
1676534196.0,286047001.2,N
1676534215.8,286047001.2,N
1676534235.6,286047001.1,N
1676534255.5,286046998.6,N
1676534275.3,286046998.5,N
1676534295.2,286047000.8,N
1676534315.9,286047001.2,N
1676534335.7,286046998.1,N
1676534355.6,286046998.5,N
1676534375.4,286046998.5,N
1676534395.2,286047001.0,N
